Weather History for Bolton Field, OH

Change the Weather History Date:

Friday, April 25, 2014

  Actual Average Record
Temperature  
Mean Temperature 52 °F -  
Max Temperature 59 °F 64 °F 82 °F (2008)
Min Temperature 42 °F 44 °F 31 °F (2013)
Degree Days  
Heating Degree Days 14    
Growing Degree Days 2 (Base 50)    
Moisture  
Dew Point 39 °F    
Average Humidity 66    
Maximum Humidity 100    
Minimum Humidity 38    
Precipitation  
Precipitation 0.05 in - - ()
Sea Level Pressure  
Sea Level Pressure 29.77 in    
Wind  
Wind Speed 7 mph (SSE)    
Max Wind Speed 21 mph    
Max Gust Speed 30 mph    
Visibility 8 miles    
Events Rain    
Averages and records for this station are not official NWS values.
T = Trace of Precipitation, MM = Missing Value Source: NWS Daily Summary

Daily Weather History Graph

Daily Weather History Graph

Search for Another Location

Airport:

Trip Planner

Search our weather history database for the weather conditions in past years. The results will help you decide how hot, cold, wet, or windy it might be!

Date:

Astronomy

Apr. 25, 2014 Rise Set
Actual Time 6:40 AM EDT 8:21 PM EDT
Civil Twilight 6:11 AM EDT 8:49 PM EDT
Nautical Twilight 5:37 AM EDT 9:24 PM EDT
Astronomical Twilight 5:00 AM EDT 10:01 PM EDT
Moon 4:27 AM EDT (4/25) 4:42 PM EDT (4/25)
Length of Visible Light 14h 38m
Length of Day
13h 40m
Waning Crescent, 15% of the Moon is Illuminated
Apr 25
Waning Crescent
Apr 29
New
May 6
First Quarter
May 14
Full
May 21
Last Quarter

Hourly Weather History & Observations

Time (EDT) Temp. Windchill Dew Point Humidity Pressure Visibility Wind Dir Wind Speed Gust Speed Precip Events Conditions
12:15 AM 51.6 °F - 28.9 °F 42% 29.83 in 10.0 mi East 6.9 mph - N/A   Clear
12:35 AM 52.5 °F - 27.7 °F 38% 29.82 in 10.0 mi East 6.9 mph - N/A   Clear
12:55 AM 52.7 °F - 27.7 °F 38% 29.82 in 10.0 mi East 8.1 mph - N/A   Clear
1:15 AM 51.8 °F - 28.9 °F 41% 29.82 in 10.0 mi East 8.1 mph - N/A   Clear
1:35 AM 52.0 °F - 28.2 °F 40% 29.81 in 10.0 mi East 5.8 mph - N/A   Clear
1:55 AM 52.0 °F - 28.2 °F 40% 29.81 in 10.0 mi East 4.6 mph - N/A   Clear
2:15 AM 51.8 °F - 28.6 °F 41% 29.79 in 10.0 mi East 5.8 mph - N/A   Clear
2:35 AM 51.1 °F - 29.3 °F 43% 29.78 in 10.0 mi East 4.6 mph - N/A   Clear
2:55 AM 51.1 °F - 28.9 °F 43% 29.77 in 10.0 mi East 4.6 mph - N/A   Scattered Clouds
3:15 AM 51.1 °F - 29.1 °F 43% 29.75 in 10.0 mi East 5.8 mph - N/A   Mostly Cloudy
3:35 AM 50.5 °F - 29.1 °F 44% 29.73 in 10.0 mi East 6.9 mph - N/A   Scattered Clouds
3:55 AM 51.1 °F - 28.4 °F 42% 29.72 in 10.0 mi East 4.6 mph - N/A   Scattered Clouds
4:15 AM 50.9 °F - 29.1 °F 43% 29.71 in 10.0 mi East 4.6 mph - N/A   Overcast
4:35 AM 50.9 °F - 28.4 °F 42% 29.71 in 10.0 mi East 5.8 mph - N/A   Mostly Cloudy
4:55 AM 50.9 °F - 29.5 °F 44% 29.70 in 10.0 mi ESE 3.5 mph - N/A   Mostly Cloudy
5:15 AM 50.7 °F - 29.5 °F 44% 29.70 in 10.0 mi East 4.6 mph - N/A   Mostly Cloudy
5:35 AM 50.9 °F - 30.9 °F 46% 29.69 in 10.0 mi ESE 3.5 mph - N/A   Overcast
5:55 AM 51.1 °F - 31.6 °F 47% 29.70 in 10.0 mi Calm Calm - N/A Rain Rain
6:15 AM 48.6 °F - 36.5 °F 63% 29.70 in 10.0 mi South 4.6 mph - 0.02 in   Overcast
6:35 AM 48.6 °F - 37.8 °F 66% 29.70 in 10.0 mi South 3.5 mph - 0.02 in   Overcast
6:55 AM 48.4 °F - 38.5 °F 69% 29.70 in 10.0 mi SSE 3.5 mph - 0.03 in Rain Rain
7:15 AM 47.3 °F - 39.4 °F 74% 29.70 in 7.0 mi SE 4.6 mph - 0.02 in Rain Rain
7:21 AM 46.4 °F - 39.2 °F 76% 29.69 in 7.0 mi Calm Calm - N/A   Overcast
7:50 AM 46.4 °F - 41.0 °F 81% 29.70 in 5.0 mi Calm Calm - N/A Rain Rain
8:05 AM 46.4 °F - 41.0 °F 81% 29.69 in 7.0 mi Calm Calm - N/A Rain Light Rain
8:50 AM 50.0 °F - 44.6 °F 82% 29.70 in 7.0 mi SSE 9.2 mph - N/A   Overcast
9:04 AM 50.0 °F - 44.6 °F 82% 29.70 in 5.0 mi SSE 12.7 mph - N/A Rain Rain
9:15 AM 48.2 °F - 44.6 °F 87% 29.69 in 5.0 mi SSE 11.5 mph - N/A Rain Light Rain
9:50 AM 50.0 °F - 46.4 °F 87% 29.67 in 10.0 mi SSE 11.5 mph - N/A   Overcast
10:17 AM 50.0 °F - 48.2 °F 94% 29.67 in 5.0 mi SSE 11.5 mph - N/A   Light Drizzle
10:34 AM 50.0 °F - 48.2 °F 94% 29.67 in 5.0 mi SSE 9.2 mph - N/A Rain Light Rain
11:00 AM 51.8 °F - 50.0 °F 94% 29.67 in 5.0 mi SSE 9.2 mph - N/A Rain Light Rain
11:21 AM 51.8 °F - 51.8 °F 100% 29.67 in 3.0 mi SSE 9.2 mph - N/A   Overcast
11:25 AM 51.8 °F - 51.8 °F 100% 29.67 in 2.0 mi SSE 9.2 mph - N/A Rain Rain
11:50 AM 53.6 °F - 53.6 °F 100% 29.67 in 3.0 mi South 9.2 mph - N/A   Overcast
12:55 PM 53.6 °F - 53.6 °F 100% 29.66 in 4.0 mi South 6.9 mph - N/A   Overcast
1:58 PM 55.4 °F - 53.6 °F 94% 29.67 in 2.5 mi WNW 12.7 mph 23.0 mph N/A Rain Light Rain
2:26 PM 55.4 °F - 53.6 °F 94% 29.69 in 5.0 mi NW 13.8 mph 20.7 mph N/A   Overcast
2:50 PM 55.4 °F - 53.6 °F 94% 29.72 in 8.0 mi NW 12.7 mph 19.6 mph N/A   Overcast
3:50 PM 55.4 °F - 50.0 °F 82% 29.77 in 8.0 mi WNW 20.7 mph 29.9 mph N/A   Overcast
4:50 PM 53.6 °F - 50.0 °F 88% 29.80 in 7.0 mi WNW 12.7 mph 26.5 mph N/A   Overcast
5:50 PM 57.2 °F - 46.4 °F 67% 29.81 in 10.0 mi NW 16.1 mph 23.0 mph N/A   Scattered Clouds
6:55 PM 59.0 °F - 46.4 °F 63% 29.84 in 10.0 mi WNW 15.0 mph 20.7 mph N/A   Scattered Clouds
7:35 PM 57.4 °F - 41.5 °F 56% 29.85 in 10.0 mi WNW 11.5 mph 20.7 mph N/A   Clear
7:55 PM 57.0 °F - 42.1 °F 57% 29.86 in 10.0 mi West 6.9 mph - N/A   Clear
8:15 PM 55.6 °F - 41.9 °F 60% 29.87 in 10.0 mi WNW 9.2 mph - N/A   Clear
8:35 PM 55.2 °F - 39.9 °F 56% 29.88 in 10.0 mi West 6.9 mph - N/A   Clear
8:55 PM 54.5 °F - 38.8 °F 56% 29.89 in 10.0 mi WNW 9.2 mph - N/A   Clear
9:15 PM 53.8 °F - 38.5 °F 56% 29.89 in 10.0 mi West 5.8 mph - N/A   Clear
9:35 PM 52.5 °F - 38.3 °F 58% 29.90 in 10.0 mi Calm Calm - N/A   Clear
9:55 PM 49.8 °F - 38.3 °F 65% 29.90 in 10.0 mi SW 3.5 mph - N/A   Clear
10:15 PM 50.9 °F - 37.9 °F 61% 29.90 in 10.0 mi Calm Calm - N/A   Clear
10:35 PM 48.7 °F - 38.3 °F 67% 29.91 in 10.0 mi SSW 4.6 mph - N/A   Clear
10:55 PM 45.5 °F 42.5 °F 38.3 °F 76% 29.91 in 10.0 mi SSW 5.8 mph - N/A   Clear
11:15 PM 44.8 °F 41.6 °F 37.8 °F 76% 29.91 in 10.0 mi SSW 5.8 mph - N/A   Clear
11:35 PM 42.6 °F 40.9 °F 37.4 °F 82% 29.91 in 10.0 mi SSW 3.5 mph - N/A   Clear